Weather History for Saint Simons Island, GA

Change the Weather History Date:

Friday, October 4, 2013

  Actual Average Record
Temperature  
Mean Temperature 77 °F 74 °F  
Max Temperature 83 °F 81 °F 94 °F (1986)
Min Temperature 70 °F 67 °F 50 °F (1974)
Degree Days  
Heating Degree Days 0 0  
Month to date heating degree days 0 0  
Since 1 July heating degree days 0 0  
Cooling Degree Days 12 9  
Month to date cooling degree days 33 38  
Year to date cooling degree days 2390 2409  
Growing Degree Days 26 (Base 50)    
Moisture  
Dew Point 71 °F    
Average Humidity 85    
Maximum Humidity 100    
Minimum Humidity 69    
Precipitation  
Precipitation 0.00 in 0.19 in 7.27 in (1992)
Month to date precipitation 0.00 0.78  
Year to date precipitation 45.83 36.65  
Snow  
Snow 0.00 in - 0.00 in ()
Month to date snowfall 0.0  
Since 1 July snowfall 0.0  
Since 1 September snowfall 0.0  
Snow Depth 0.00 in    
Sea Level Pressure  
Sea Level Pressure 30.10 in    
Wind  
Wind Speed 5 mph (NE)    
Max Wind Speed 15 mph    
Max Gust Speed 20 mph    
Visibility 8 miles    
Events      
T = Trace of Precipitation, MM = Missing Value Source: NWS Daily Summary

Daily Weather History Graph

Daily Weather History Graph

Search for Another Location

Airport:

Trip Planner

Search our weather history database for the weather conditions in past years. The results will help you decide how hot, cold, wet, or windy it might be!

Date:

Astronomy

Oct. 04, 2013 Rise Set
Actual Time 7:21 AM EDT 7:06 PM EDT
Civil Twilight 6:57 AM EDT 7:30 PM EDT
Nautical Twilight 6:29 AM EDT 7:58 PM EDT
Astronomical Twilight 6:00 AM EDT 8:26 PM EDT
Moon 6:54 AM EDT (10/4) 6:50 PM EDT (10/4)
Length of Visible Light 12h 33m
Length of Day
11h 45m
Waning Crescent, 0% of the Moon is Illuminated
Oct 4
Waning Crescent
Oct 4
New
Oct 11
First Quarter
Oct 18
Full
Oct 26
Last Quarter

Hourly Weather History & Observations

Time (EDT) Temp. Heat Index Dew Point Humidity Pressure Visibility Wind Dir Wind Speed Gust Speed Precip Events Conditions
12:53 AM 73.0 °F - 71.1 °F 93% 30.09 in 10.0 mi Calm Calm - N/A   Clear
1:53 AM 72.0 °F - 70.0 °F 93% 30.09 in 9.0 mi Calm Calm - N/A   Clear
2:53 AM 72.0 °F - 70.0 °F 93% 30.07 in 9.0 mi Calm Calm - N/A   Clear
3:02 AM 71.6 °F - 69.8 °F 94% 30.07 in 7.0 mi Calm Calm - N/A   Partly Cloudy
3:53 AM 71.1 °F - 70.0 °F 96% 30.06 in 10.0 mi Calm Calm - N/A   Clear
4:53 AM 71.1 °F - 69.1 °F 93% 30.06 in 10.0 mi Calm Calm - N/A   Clear
5:49 AM 69.8 °F - 69.8 °F 100% 30.07 in 10.0 mi Calm Calm - N/A   Scattered Clouds
5:53 AM 70.0 °F - 68.0 °F 93% 30.07 in 10.0 mi Calm Calm - N/A   Mostly Cloudy
6:31 AM 69.8 °F - 68.0 °F 94% 30.08 in 1.5 mi North 3.5 mph - N/A   Overcast
6:41 AM 69.8 °F - 69.8 °F 100% 30.08 in 0.8 mi North 3.5 mph - N/A   Mist
6:51 AM 69.8 °F - 69.8 °F 100% 30.08 in 1.5 mi Calm Calm - N/A   Overcast
6:53 AM 70.0 °F - 69.1 °F 97% 30.09 in 2.0 mi Calm Calm - N/A   Overcast
7:02 AM 71.6 °F - 69.8 °F 94% 30.08 in 7.0 mi Calm Calm - N/A   Overcast
7:43 AM 71.6 °F - 69.8 °F 94% 30.09 in 1.8 mi Calm Calm - N/A   Overcast
7:53 AM 71.1 °F - 70.0 °F 96% 30.10 in 1.0 mi Calm Calm - N/A   Overcast
7:59 AM 71.6 °F - 69.8 °F 94% 30.10 in 3.0 mi NNW 3.5 mph - N/A   Overcast
8:42 AM 71.6 °F - 69.8 °F 94% 30.11 in 1.8 mi North 3.5 mph - N/A   Overcast
8:53 AM 72.0 °F - 71.1 °F 97% 30.12 in 1.2 mi NNE 3.5 mph - N/A   Mostly Cloudy
8:56 AM 73.4 °F - 71.6 °F 94% 30.12 in 3.0 mi North 3.5 mph - N/A   Mostly Cloudy
9:07 AM 73.4 °F - 71.6 °F 94% 30.12 in 10.0 mi North 3.5 mph - N/A   Scattered Clouds
9:53 AM 77.0 °F - 73.9 °F 90% 30.13 in 10.0 mi NNE 6.9 mph - N/A   Clear
10:53 AM 82.0 °F 87.9 °F 73.9 °F 76% 30.14 in 10.0 mi North 6.9 mph - N/A   Scattered Clouds
11:00 AM 80.6 °F 85.4 °F 73.4 °F 79% 30.14 in 10.0 mi North 6.9 mph - N/A   Mostly Cloudy
11:24 AM 78.8 °F - 73.4 °F 83% 30.14 in 10.0 mi North 6.9 mph - N/A   Overcast
11:53 AM 79.0 °F - 73.0 °F 82% 30.13 in 10.0 mi NW 3.5 mph - N/A   Overcast
12:42 PM 82.4 °F 88.2 °F 73.4 °F 74% 30.13 in 10.0 mi ENE 8.1 mph - N/A   Scattered Clouds
12:53 PM 82.9 °F 89.4 °F 73.9 °F 74% 30.12 in 10.0 mi ENE 9.2 mph - N/A   Partly Cloudy
1:53 PM 82.0 °F 87.4 °F 73.0 °F 74% 30.11 in 10.0 mi ENE 11.5 mph - N/A   Scattered Clouds
2:53 PM 82.0 °F 86.3 °F 71.1 °F 69% 30.08 in 10.0 mi ENE 11.5 mph - N/A   Scattered Clouds
3:53 PM 81.0 °F 84.9 °F 71.1 °F 72% 30.07 in 10.0 mi ENE 11.5 mph - N/A   Clear
4:53 PM 80.1 °F 83.8 °F 72.0 °F 76% 30.06 in 10.0 mi ENE 10.4 mph - N/A   Clear
5:53 PM 79.0 °F - 72.0 °F 79% 30.06 in 10.0 mi ENE 9.2 mph - N/A   Clear
6:53 PM 77.0 °F - 72.0 °F 84% 30.07 in 10.0 mi East 6.9 mph - N/A   Clear
7:53 PM 77.0 °F - 71.1 °F 82% 30.08 in 10.0 mi East 8.1 mph - N/A   Clear
8:53 PM 75.9 °F - 71.1 °F 85% 30.09 in 10.0 mi East 5.8 mph - N/A   Clear
9:53 PM 75.9 °F - 72.0 °F 87% 30.11 in 10.0 mi East 3.5 mph - N/A   Clear
10:53 PM 75.0 °F - 71.1 °F 87% 30.11 in 10.0 mi Calm Calm - N/A   Clear
11:53 PM 73.0 °F - 71.1 °F 93% 30.11 in 10.0 mi Calm Calm - N/A   Clear